Satellite: XATCOBEO
Catalog number: 38082
Epoch time:      12252.07965093
Element set:     538
Inclination:      069.4837 deg
RA of node:       124.7607 deg
Eccentricity:    0.0709198
Arg of perigee:   142.6195 deg
Mean anomaly:     222.6420 deg
Mean motion:   14.22518401 rev/day
Decay rate:     6.4262e-04 rev/day^2
Epoch rev:            2935
Checksum:              306

/EX
SB KEPS @ AMSAT  $ORB12253.W
Orbital Elements  12253.WEATHER

HR AMSAT ORBITAL ELEMENTS FOR WEATHER SATELLITES
FROM WA5QGD FORT WORTH,TX September 9, 2012
Send SUBSCRIBE KEPS/UNSUBSCRIBE KEPS to majordomo@amsat.org only
BID: ORB12253.W
TO ALL RADIO AMATEURS BT

Satellite: NOAA-10
Catalog number: 16969
Epoch time:      12252.91687556
Element set:    0057
Inclination:      098.5777 deg
RA of node:       280.4613 deg
Eccentricity:    0.0012272
Arg of perigee:   354.1307 deg
Mean anomaly:     005.9735 deg
Mean motion:   14.27575216 rev/day
Decay rate:       1.24e-06 rev/day^2
Epoch rev:           35181
Checksum:              311

Satellite: NOAA-11
Catalog number: 19531
Epoch time:      12252.86806269
Element set:    0049
Inclination:      098.7295 deg
RA of node:       336.2557 deg
Eccentricity:    0.0011253
Arg of perigee:   349.9125 deg
Mean anomaly:     010.1851 deg
Mean motion:   14.14979599 rev/day
Decay rate:        9.4e-07 rev/day^2
Epoch rev:           23634
Checksum:              323

Satellite: NOAA-12
Catalog number: 21263
Epoch time:      12252.92455155
Element set:    0535
Inclination:      098.7254 deg
RA of node:       274.1840 deg
Eccentricity:    0.0013408
Arg of perigee:   321.6896 deg
Mean anomaly:     038.3331 deg
Mean motion:   14.25516047 rev/day
Decay rate:       -4.8e-07 rev/day^2
Epoch rev:           10848
Checksum:              291

Satellite: MET-3/5
Catalog number: 21655
Epoch time:      12252.78970527
Element set:    0499
Inclination:      082.5523 deg
RA of node:       093.1283 deg
Eccentricity:    0.0014511
Arg of perigee:   112.7728 deg
Mean anomaly:     247.4929 deg
Mean motion:   13.17044364 rev/day
Decay rate:      -3.17e-06 rev/day^2
Epoch rev:           01289
Checksum:              309

Satellite: MET-2/21
Catalog number: 22782
Epoch time:      12252.82055937
Element set:    0522
Inclination:      082.5501 deg
RA of node:       326.1593 deg
Eccentricity:    0.0020912
Arg of perigee:   278.9959 deg
Mean anomaly:     080.8828 deg
Mean motion:   13.83688808 rev/day
Decay rate:       -1.0e-08 rev/day^2
Epoch rev:           96073
Checksum:              325

Satellite: OKEAN-4
Catalog number: 23317
Epoch time:      12252.91854617
Element set:    0051
Inclination:      082.5414 deg
RA of node:       312.9215 deg
Eccentricity:    0.0023287
Arg of perigee:   076.3317 deg
Mean anomaly:     284.0489 deg
Mean motion:   14.83937341 rev/day
Decay rate:      1.197e-05 rev/day^2
Epoch rev:           96722
Checksum:              306

Satellite: NOAA-14
Catalog number: 23455
Epoch time:      12252.90549961
Element set:    0015
Inclination:      098.8240 deg
RA of node:       335.3377 deg
Eccentricity:    0.0010405
Arg of perigee:   077.3904 deg
Mean anomaly:     282.8429 deg
Mean motion:   14.13869636 rev/day
Decay rate:        8.3e-07 rev/day^2
Epoch rev:           91262
Checksum:              311

Satellite: NOAA-15
Catalog number: 25338
Epoch time:      12252.11555053
Element set:    0394
Inclination:      098.6977 deg
RA of node:       238.2751 deg
Eccentricity:    0.0009830
Arg of perigee:   224.2087 deg
Mean anomaly:     135.8307 deg
Mean motion:   14.25115759 rev/day
Decay rate:       2.77e-06 rev/day^2
Epoch rev:           74466
Checksum:              319

Satellite: RESURS
Catalog number: 25394
Epoch time:      12252.92954130
Element set:     179
Inclination:      098.3280 deg
RA of node:       236.7909 deg
Eccentricity:    0.0002085
Arg of perigee:   023.8482 deg
Mean anomaly:     336.2795 deg
Mean motion:   14.24295024 rev/day
Decay rate:        7.8e-07 rev/day^2
Epoch rev:           73632
Checksum:              307

Satellite: FENGYUN1
Catalog number: 25730
Epoch time:      12252.89726020
Element set:     690
Inclination:      098.8498 deg
RA of node:       210.4516 deg
Eccentricity:    0.0019424
Arg of perigee:   117.4974 deg
Mean anomaly:     242.8173 deg
Mean motion:   14.09737557 rev/day
Decay rate:      1.061e-05 rev/day^2
Epoch rev:           68640
Checksum:              312

Satellite: OKEAN-0
Catalog number: 25860
Epoch time:      12252.94689974
Element set:    0738
Inclination:      097.9460 deg
RA of node:       213.9238 deg
Eccentricity:    0.0001483
Arg of perigee:   034.6010 deg
Mean anomaly:     325.5294 deg
Mean motion:   14.74292037 rev/day
Decay rate:       8.82e-06 rev/day^2
Epoch rev:           70691
Checksum:              320

Satellite: NOAA-16
Catalog number: 26536
Epoch time:      12252.11201533
Element set:    0882
Inclination:      099.0858 deg
RA of node:       295.4854 deg
Eccentricity:    0.0010233
Arg of perigee:   206.3988 deg
Mean anomaly:     153.6696 deg
Mean motion:   14.12778020 rev/day
Decay rate:       3.44e-06 rev/day^2
Epoch rev:           61674
Checksum:              309

